Voltar ao catálogo

KUIPER-00014

AtivoComunicaçõesLEO
NORAD 63730·PAYLOAD·🇺🇸 United States

Lançado Apr 28, 2025 de Cape Canaveral Space Force Station

Loading…

Próximas Passagens (próximas 24 horas)

TLE

AtualizadoSource: CelesTrak SupGP

Época: Sep 15, 2026, 01:48 UTC

1 63730C 25088G   26258.07541667  .00000062  00000+0  80924-5 0  2584
2 63730  51.9024 350.6024 0000336  92.1854 126.8501 14.79933804    15

Acompanhe KUIPER-00014 em tempo real com AllMySat

Download on the App Store